FlightSource - Aviation Photo Database

World Wide Airport Lookup


Search by ICAO
Or
Search by City

FlightSource.ca - Aviation Photo Database - McEntire Angs Airport Information
Airport Identification
Name: McEntire Angs Airport
ICAO: KMMT
IATA:
Airport Location
City: Eastover
Region: SC
Country: United States
Continent: North America
Latitude: 33.9208
Longitude: -80.8013
Airport Information
Type: Medium Airport
Elevation: 252 Feet ASL
Flight Status: KMMT
More Info: KMMT
Airport Weather    
Metar: KMMT 251456Z 22009KT 10SM FEW025 SCT065 23/17 A3011 RMK AO2A SLP197 T02270169 52007 $
TAF:


Advertisement